FW1932 Weather Reports


time (UTC)temp
C
wind
direction
speed
KPH
gust
KPH
rain 1hr
cm
rain 24hr
cm
rain mn
cm
humidity
%
barometer
mb
20260902194526 21 255 0.0 0.0 0.00 0.00 0.00 62 1023.3
20260902193026 22 255 0.0 0.0 0.00 0.00 0.00 61 1023.2
20260902191523 22 255 0.0 0.0 0.00 0.00 0.00 60 1023.2
20260902190024 22 255 0.0 0.0 0.00 0.00 0.00 59 1023.0
20260902184530 23 255 0.0 0.0 0.00 0.00 0.00 57 1022.8
20260902183042 23 256 0.0 0.0 0.00 0.00 0.00 56 1022.7
20260902181522 24 256 0.0 1.6 0.00 0.00 0.00 54 1022.7
20260902180022 25 252 0.0 3.2 0.00 0.00 0.00 53 1022.6
20260902174524 25 247 0.0 1.6 0.00 0.00 0.00 53 1022.4
20260902173026 25 247 0.0 4.8 0.00 0.00 0.00 51 1022.3
20260902171520 25 233 0.0 6.4 0.00 0.00 0.00 51 1022.2
20260902170020 25 248 0.0 3.2 0.00 0.00 0.00 53 1022.2
20260902164523 25 205 3.2 6.4 0.00 0.00 0.00 51 1022.1
20260902163019 26 241 1.6 8.0 0.00 0.00 0.00 50 1022.0
20260902161518 26 252 3.2 9.7 0.00 0.00 0.00 49 1022.1
20260902160017 26 245 1.6 11.3 0.00 0.00 0.00 49 1022.1
20260902154518 26 247 0.0 8.0 0.00 0.00 0.00 50 1022.3
20260902153018 27 198 0.0 11.3 0.00 0.00 0.00 48 1022.2
20260902151516 27 232 3.2 8.0 0.00 0.00 0.00 47 1022.2
20260902150016 28 248 3.2 14.5 0.00 0.00 0.00 46 1022.2
20260902144513 28 225 4.8 14.5 0.00 0.00 0.00 45 1022.2
20260902143017 28 133 1.6 9.7 0.00 0.00 0.00 43 1022.1
20260902141512 28 191 4.8 16.1 0.00 0.00 0.00 42 1022.0
20260902140013 28 243 1.6 9.7 0.00 0.00 0.00 41 1022.1
20260902134510 27 250 6.4 12.9 0.00 0.00 0.00 41 1022.0
20260902133011 28 238 3.2 9.7 0.00 0.00 0.00 41 1022.2
20260902131509 28 250 3.2 8.0 0.00 0.00 0.00 41 1022.3
20260902130008 28 211 0.0 8.0 0.00 0.00 0.00 41 1022.4
20260902124505 28 124 3.2 11.3 0.00 0.00 0.00 38 1022.6
20260902123005 28 218 1.6 6.4 0.00 0.00 0.00 37 1022.6
20260902121501 28 255 0.0 4.8 0.00 0.00 0.00 40 1022.6
20260902120059 28 243 0.0 6.4 0.00 0.00 0.00 41 1022.7
20260902114557 28 243 1.6 6.4 0.00 0.00 0.00 44 1022.8
20260902113056 27 245 0.0 9.7 0.00 0.00 0.00 48 1022.8
20260902111555 27 242 0.0 3.2 0.00 0.00 0.00 49 1023.0
20260902110058 26 248 0.0 6.4 0.00 0.00 0.00 53 1023.2
20260902104557 26 248 1.6 4.8 0.00 0.00 0.00 52 1023.4
20260902103102 25 244 0.0 4.8 0.00 0.00 0.00 55 1023.7
20260902101544 25 240 3.2 6.4 0.00 0.00 0.00 56 1023.8
20260902100041 24 257 0.0 4.8 0.00 0.00 0.00 56 1023.8
20260902094539 23 243 3.2 8.0 0.00 0.00 0.00 58 1023.7
20260902093037 23 68 0.0 4.8 0.00 0.00 0.00 64 1023.9
20260902091534 22 245 1.6 4.8 0.00 0.00 0.00 64 1023.9
20260902090037 21 245 0.0 1.6 0.00 0.00 0.00 68 1023.8
20260902084536 20 245 0.0 0.0 0.00 0.00 0.00 73 1023.9
20260902083023 18 245 0.0 0.0 0.00 0.00 0.00 74 1023.9
20260902081521 18 245 0.0 1.6 0.00 0.00 0.00 76 1023.7
20260902080022 18 245 0.0 3.2 0.00 0.00 0.00 75 1023.6
20260902074517 17 243 1.6 4.8 0.00 0.00 0.00 74 1023.4
20260902073015 17 247 0.0 3.2 0.00 0.00 0.00 76 1023.3
20260902071514 17 246 0.0 3.2 0.00 0.00 0.00 79 1023.3
20260902070022 16 243 1.6 4.8 0.00 0.00 0.00 79 1023.1
20260902064514 15 284 0.0 0.0 0.00 0.00 0.00 85 1023.1
20260902063032 15 284 0.0 0.0 0.00 0.00 0.00 87 1023.2
20260902061512 14 285 0.0 0.0 0.00 0.00 0.00 87 1023.2
20260902060012 13 285 0.0 0.0 0.00 0.00 0.00 88 1023.1
20260902054513 13 285 0.0 0.0 0.00 0.00 0.00 89 1023.2
20260902053009 13 285 0.0 0.0 0.00 0.00 0.00 89 1023.3
20260902051508 13 284 0.0 0.0 0.00 0.00 0.00 88 1023.1
20260902050011 13 285 0.0 0.0 0.00 0.00 0.00 89 1022.9
20260902044506 13 285 0.0 0.0 0.00 0.00 0.00 88 1022.9
20260902043006 13 285 0.0 0.0 0.00 0.00 0.00 87 1022.7
20260902041505 13 284 0.0 0.0 0.00 0.00 0.00 87 1022.8
20260902040005 13 284 0.0 0.0 0.00 0.00 0.00 88 1022.7
20260902034503 13 285 0.0 1.6 0.00 0.00 0.00 87 1022.7
20260902033003 13 285 0.0 0.0 0.00 0.00 0.00 88 1022.7
20260902031508 13 285 0.0 0.0 0.00 0.00 0.00 87 1022.9
20260902030002 13 285 0.0 0.0 0.00 0.00 0.00 86 1023.0
20260902024603 13 285 0.0 0.0 0.00 0.00 0.00 87 1023.0
20260902023100 13 285 0.0 0.0 0.00 0.00 0.00 86 1023.1
20260902021559 14 285 0.0 0.0 0.00 0.00 0.00 87 1022.8
20260902020054 14 284 0.0 0.0 0.00 0.00 0.00 84 1022.6
20260902014552 15 285 0.0 0.0 0.00 0.00 0.00 88 1022.8
20260902013058 15 284 0.0 0.0 0.00 0.00 0.00 85 1022.8
20260902011547 15 284 0.0 0.0 0.00 0.00 0.00 83 1022.9
20260902010046 15 285 0.0 0.0 0.00 0.00 0.00 84 1022.9
20260902004545 15 285 0.0 0.0 0.00 0.00 0.00 84 1023.0
20260902003043 15 285 0.0 0.0 0.00 0.00 0.00 85 1023.1
20260902001541 15 285 0.0 0.0 0.00 0.00 0.00 84 1023.1
20260902000040 16 285 0.0 0.0 0.00 0.00 0.00 84 1023.2
20260901234538 16 285 0.0 0.0 0.00 0.00 0.00 80 1023.2
20260901233038 16 285 0.0 0.0 0.00 0.00 0.00 80 1023.2
20260901231538 16 285 0.0 0.0 0.00 0.00 0.00 79 1023.1
20260901230032 16 285 0.0 0.0 0.00 0.00 0.00 83 1023.2
20260901224529 17 285 0.0 0.0 0.00 0.00 0.00 82 1023.1
20260901223027 17 285 0.0 1.6 0.00 0.00 0.00 75 1022.9
20260901221525 17 280 0.0 0.0 0.00 0.00 0.00 76 1022.9
20260901220022 17 280 0.0 0.0 0.00 0.00 0.00 74 1022.9
20260901214522 17 281 0.0 1.6 0.00 0.00 0.00 75 1022.8
20260901213027 17 251 0.0 1.6 0.00 0.00 0.00 73 1022.8
20260901211521 18 238 0.0 1.6 0.00 0.00 0.00 77 1022.8
20260901210022 18 129 0.0 1.6 0.00 0.00 0.00 74 1022.8
20260901204522 18 130 0.0 0.0 0.00 0.00 0.00 73 1022.8
20260901203020 18 130 0.0 0.0 0.00 0.00 0.00 70 1022.7
20260901201520 19 130 0.0 0.0 0.00 0.00 0.00 72 1022.8
20260901200019 20 130 0.0 0.0 0.00 0.00 0.00 74 1022.8